�������C�����ː����j�^�v���󋵏��
Date,Time,Cs137(Bq/L),Cs134(Bq/L),�S��(Bq/L)
2019/01/15,00:00,0.23,ND,13
2019/01/15,00:10,0.27,ND,12
2019/01/15,00:20,0.27,ND,10
2019/01/15,00:30,0.26,ND,ND
2019/01/15,00:40,0.26,ND,ND
2019/01/15,00:50,0.26,ND,9.5
2019/01/15,01:00,0.25,ND,10
2019/01/15,01:10,0.25,ND,11
2019/01/15,01:20,0.24,ND,15
2019/01/15,01:30,0.26,ND,14
2019/01/15,01:40,0.25,ND,15
2019/01/15,01:50,0.26,ND,11
2019/01/15,02:00,0.26,ND,ND
2019/01/15,02:10,0.24,ND,ND
2019/01/15,02:20,0.25,ND,ND
2019/01/15,02:30,0.24,ND,ND
2019/01/15,02:40,0.24,ND,ND
2019/01/15,02:50,0.23,ND,ND
2019/01/15,03:00,0.25,ND,ND
2019/01/15,03:10,0.24,ND,ND
2019/01/15,03:20,0.24,ND,ND
2019/01/15,03:30,0.24,ND,ND
2019/01/15,03:40,0.26,ND,ND
2019/01/15,03:50,0.25,ND,ND
2019/01/15,04:00,0.21,ND,ND
2019/01/15,04:10,0.21,ND,ND
2019/01/15,04:20,0.26,ND,ND
2019/01/15,04:30,0.27,ND,9.5
2019/01/15,04:40,0.27,ND,8.9
2019/01/15,04:50,0.28,ND,9.3
2019/01/15,05:00,0.28,ND,12
2019/01/15,05:10,0.28,ND,11
2019/01/15,05:20,0.29,ND,10
2019/01/15,05:30,0.30,ND,ND
2019/01/15,05:40,0.31,ND,11
2019/01/15,05:50,0.32,ND,10
2019/01/15,06:00,0.32,ND,9.0
2019/01/15,06:10,0.33,ND,13
2019/01/15,06:20,0.32,ND,15
2019/01/15,06:30,0.28,ND,15
2019/01/15,06:40,0.28,ND,15
2019/01/15,06:50,0.27,ND,14
2019/01/15,07:00,0.30,ND,14
2019/01/15,07:10,0.28,ND,13
2019/01/15,07:20,0.27,ND,13
2019/01/15,07:30,0.25,ND,14
2019/01/15,07:40,0.26,ND,14
2019/01/15,07:50,0.27,ND,15
2019/01/15,08:00,0.25,ND,15
2019/01/15,08:10,0.26,ND,15
2019/01/15,08:20,0.30,ND,13
2019/01/15,08:30,0.29,ND,11
2019/01/15,08:40,0.28,ND,9.5
2019/01/15,08:50,0.29,ND,10
2019/01/15,09:00,0.29,ND,ND
2019/01/15,09:10,0.31,ND,9.7
2019/01/15,09:20,0.32,ND,11
2019/01/15,09:30,0.31,ND,12
2019/01/15,09:40,0.31,ND,12
2019/01/15,09:50,0.31,ND,10
2019/01/15,10:00,0.30,ND,8.9
2019/01/15,10:10,0.29,ND,ND
2019/01/15,10:20,0.28,ND,ND
2019/01/15,10:30,0.30,ND,ND
2019/01/15,10:40,0.28,ND,ND
2019/01/15,10:50,0.28,ND,ND
2019/01/15,11:00,0.30,ND,8.9
2019/01/15,11:10,0.30,ND,10
2019/01/15,11:20,0.30,ND,8.8
2019/01/15,11:30,0.30,ND,10
2019/01/15,11:40,0.32,ND,14
2019/01/15,11:50,0.31,ND,16
2019/01/15,12:00,0.31,ND,19
2019/01/15,12:10,0.26,ND,20
2019/01/15,12:20,0.27,ND,21
2019/01/15,12:30,0.29,ND,19
2019/01/15,12:40,0.33,ND,16
2019/01/15,12:50,0.28,ND,16
2019/01/15,13:00,0.27,ND,14
2019/01/15,13:10,0.29,ND,9.5
2019/01/15,13:20,0.28,ND,ND
2019/01/15,13:30,0.27,ND,ND
2019/01/15,13:40,0.27,ND,ND
2019/01/15,13:50,0.28,ND,9.5
2019/01/15,14:00,0.31,ND,8.9
2019/01/15,14:10,0.31,ND,11
2019/01/15,14:20,0.30,ND,15
2019/01/15,14:30,0.31,ND,16
2019/01/15,14:40,0.31,ND,15
2019/01/15,14:50,0.29,ND,13
2019/01/15,15:00,0.30,ND,14
2019/01/15,15:10,0.29,ND,14
2019/01/15,15:20,0.30,ND,10
2019/01/15,15:30,0.29,ND,12
2019/01/15,15:40,0.30,ND,12
2019/01/15,15:50,0.31,ND,13
2019/01/15,16:00,0.32,ND,10
2019/01/15,16:10,0.34,ND,ND
2019/01/15,16:20,0.34,ND,12
2019/01/15,16:30,0.36,ND,11
2019/01/15,16:40,0.32,ND,10
2019/01/15,16:50,0.33,ND,10
2019/01/15,17:00,0.33,ND,14
2019/01/15,17:10,0.32,ND,15
2019/01/15,17:20,0.31,ND,14
2019/01/15,17:30,0.30,ND,13
2019/01/15,17:40,0.30,ND,12
2019/01/15,17:50,0.29,ND,10
2019/01/15,18:00,0.32,ND,ND
2019/01/15,18:10,0.31,ND,ND
2019/01/15,18:20,0.32,ND,ND
2019/01/15,18:30,0.32,ND,ND
2019/01/15,18:40,0.31,ND,ND
2019/01/15,18:50,0.33,ND,ND
2019/01/15,19:00,0.31,ND,9.5
2019/01/15,19:10,0.33,ND,14
2019/01/15,19:20,0.32,ND,16
2019/01/15,19:30,0.33,ND,18
2019/01/15,19:40,0.33,ND,18
2019/01/15,19:50,0.32,ND,15
2019/01/15,20:00,0.29,ND,14
2019/01/15,20:10,0.32,ND,15
2019/01/15,20:20,0.33,ND,14
2019/01/15,20:30,0.29,ND,13
2019/01/15,20:40,0.30,ND,16
2019/01/15,20:50,0.32,ND,18
2019/01/15,21:00,0.32,ND,19
2019/01/15,21:10,0.35,ND,17
2019/01/15,21:20,0.35,ND,16
2019/01/15,21:30,0.35,ND,16
2019/01/15,21:40,0.34,ND,15
2019/01/15,21:50,0.34,ND,15
2019/01/15,22:00,0.32,ND,13
2019/01/15,22:10,0.33,ND,13
2019/01/15,22:20,0.31,ND,13
2019/01/15,22:30,0.31,ND,11
2019/01/15,22:40,0.31,ND,ND
2019/01/15,22:50,0.30,ND,ND
2019/01/15,23:00,0.30,ND,9.7
2019/01/15,23:10,0.30,ND,9.9
2019/01/15,23:20,0.33,ND,9.7
2019/01/15,23:30,0.32,ND,11
2019/01/15,23:40,0.31,ND,13
2019/01/15,23:50,0.31,ND,13
